Tracking 35237 objects as of 5-Sep-2026
HD Live streaming from Space Station
objects crossing your sky now

COSMOS 1646 DEB


COSMOS 1646 DEB is no longer on orbit


NORAD ID: 18654
Int'l Code: 1985-030P
Launch date: April 18, 1985
Source: Commonwealth of Independent States (former USSR) (CIS)
Launch site: TYURATAM MISSILE AND SPACE COMPLEX (TTMTR)
Decay date: 1988-04-02

Note: This is SATELLITE DEBRIS
Your satellite tracking list
Your tracking list is empty




NASA's NSSDC Master Catalog

Two Line Element Set (TLE):
1 18654U 85030  P 88093.19506067  .14318828 +31699-4 +13474-2 0  9990
2 18654 065.0004 182.5377 0008134 250.1782 125.1896 16.38130030020071
Source of the keplerian elements: AFSPC